Location: *
(33.8649°S, 62.1526°E)
Time: 13:11:02
(UTC+00:00)

ERS-1 Rocket - Pass Details

Date: 17 January 2021
Orbit: 753 x 757 km, 98.4° (Epoch: 02 March)

Event Time Altitude Azimuth Distance (km) Brightness Sun altitude
Rises 17:55:01 0° 161° (SSE) 3,238 6.7 -27.8°
Reaches altitude 10° 17:57:25 10° 155° (SSE) 2,305 5.8 -28.0°
Enters shadow 18:00:30 34° 133° (SE) 1,250 4.1 -28.4°
